Weather History for Fort Stockton, TX

Change the Weather History Date:

Friday, September 6, 2013

  Actual Average Record
Temperature  
Mean Temperature 80 °F -  
Max Temperature 91 °F 88 °F 104 °F (2000)
Min Temperature 69 °F 65 °F 59 °F (2011)
Cooling Degree Days 15    
Growing Degree Days 30 (Base 50)    
Moisture  
Dew Point 59 °F    
Average Humidity 50    
Maximum Humidity 78    
Minimum Humidity 30    
Precipitation  
Precipitation 0.00 in - - ()
Sea Level Pressure  
Sea Level Pressure 29.98 in    
Wind  
Wind Speed 9 mph (SE)    
Max Wind Speed 15 mph    
Max Gust Speed 22 mph    
Visibility 10 miles    
Events      
Averages and records for this station are not official NWS values.
T = Trace of Precipitation, MM = Missing Value Source: NWS Daily Summary

Daily Weather History Graph

Daily Weather History Graph

Search for Another Location

Airport:

Trip Planner

Search our weather history database for the weather conditions in past years. The results will help you decide how hot, cold, wet, or windy it might be!

Date:

Astronomy

Sep. 06, 2013 Rise Set
Actual Time 7:30 AM CDT 8:08 PM CDT
Civil Twilight 7:06 AM CDT 8:32 PM CDT
Nautical Twilight 6:37 AM CDT 9:01 PM CDT
Astronomical Twilight 6:08 AM CDT 9:30 PM CDT
Moon 8:37 AM CDT (9/6) 8:44 PM CDT (9/6)
Length of Visible Light 13h 26m
Length of Day
12h 37m
New Moon, 2% of the Moon is Illuminated
Sep 6
New Moon
Sep 12
First Quarter
Sep 19
Full
Sep 26
Last Quarter
Oct 4
New

Hourly Weather History & Observations

Time (CDT) Temp. Heat Index Dew Point Humidity Pressure Visibility Wind Dir Wind Speed Gust Speed Precip Events Conditions
12:53 AM 73.9 °F - 62.1 °F 66% 30.00 in 10.0 mi SSE 10.4 mph - N/A   Clear
1:53 AM 73.0 °F - 61.0 °F 66% 30.00 in 10.0 mi SSE 8.1 mph - N/A   Clear
2:53 AM 73.9 °F - 60.1 °F 62% 29.99 in 10.0 mi SSE 6.9 mph - N/A   Clear
3:53 AM 73.9 °F - 60.1 °F 62% 29.99 in 10.0 mi SE 5.8 mph - N/A   Clear
4:53 AM 73.0 °F - 61.0 °F 66% 29.99 in 10.0 mi SSE 4.6 mph - N/A   Clear
5:53 AM 71.1 °F - 61.0 °F 70% 30.00 in 10.0 mi SE 3.5 mph - N/A   Clear
6:53 AM 70.0 °F - 62.1 °F 76% 30.01 in 10.0 mi SE 8.1 mph - N/A   Clear
7:53 AM 69.1 °F - 62.1 °F 78% 30.02 in 10.0 mi SSE 8.1 mph - N/A   Clear
8:53 AM 72.0 °F - 62.1 °F 71% 30.05 in 10.0 mi South 8.1 mph - N/A   Unknown
9:53 AM 79.0 °F - 62.1 °F 56% 30.05 in 10.0 mi SSE 9.2 mph - N/A   Clear
10:53 AM 82.9 °F 83.3 °F 61.0 °F 47% 30.05 in 10.0 mi SE 12.7 mph 18.4 mph N/A   Clear
11:53 AM 86.0 °F 85.4 °F 59.0 °F 40% 30.04 in 10.0 mi SE 10.4 mph - N/A   Clear
12:53 PM 88.0 °F 86.9 °F 57.9 °F 36% 30.02 in 10.0 mi ESE 12.7 mph 21.9 mph N/A   Clear
1:53 PM 90.0 °F 88.6 °F 57.0 °F 33% 30.00 in 10.0 mi SE 12.7 mph 21.9 mph N/A   Clear
2:53 PM 91.0 °F 89.2 °F 55.9 °F 30% 29.96 in 10.0 mi SE 12.7 mph 19.6 mph N/A   Scattered Clouds
3:53 PM 90.0 °F 88.1 °F 55.9 °F 31% 29.94 in 10.0 mi ESE 12.7 mph 20.7 mph N/A   Clear
4:53 PM 90.0 °F 87.9 °F 55.0 °F 30% 29.91 in 10.0 mi ESE 15.0 mph 21.9 mph N/A   Clear
5:53 PM 90.0 °F 87.9 °F 55.0 °F 30% 29.91 in 10.0 mi SE 12.7 mph 19.6 mph N/A   Clear
6:53 PM 88.0 °F 86.5 °F 55.9 °F 34% 29.91 in 10.0 mi SE 10.4 mph - N/A   Clear
7:53 PM 86.0 °F 84.7 °F 55.9 °F 36% 29.91 in 10.0 mi SE 12.7 mph - N/A   Clear
8:53 PM 84.0 °F 83.0 °F 55.9 °F 38% 29.93 in 10.0 mi SE 9.2 mph - N/A   Clear
9:53 PM 81.0 °F 80.8 °F 55.9 °F 42% 29.94 in 10.0 mi SE 10.4 mph - N/A   Clear
10:53 PM 79.0 °F - 55.9 °F 45% 29.95 in 10.0 mi SSE 8.1 mph - N/A   Clear
11:53 PM 75.9 °F - 55.0 °F 48% 29.95 in 10.0 mi SSE 5.8 mph - N/A   Clear